SAS320T EKCH-EDDF

Flight info

Callsign SAS320T
Flight time 1h 10m
Altitude 36000
Route EKCH/04R N0451F360 NEXE2A NEXEN T503 GIMRU DCT MICOS DCT RIMET/N0446F310 T157 KOKEB/N0404F230 T157 KERAX KERA5A EDDF/25R
Aircraft A320/M-SDE3FGHIJ1RWXYZ/ALB1

Departure

Time 2026-05-07 17:19
Airport Copenhagen Kastrup Airport (EKCH)

Arrival

Time 2026-05-07 18:29
Airport Frankfurt Main Airport (EDDF)
Time Latitude Longitude Altitude Speed Heading
2026-05-07 16:50 55.62701 12.65074 26 ft 0 kts 291°
2026-05-07 16:58 55.62701 12.65075 24 ft 0 kts 291°
2026-05-07 17:08 55.62700 12.65076 24 ft 1 kts 291°
2026-05-07 17:09 55.62690 12.65116 29 ft 4 kts 302°
2026-05-07 17:09 55.62674 12.65153 28 ft 4 kts 320°
2026-05-07 17:09 55.62651 12.65178 25 ft 4 kts 341°
2026-05-07 17:09 55.62625 12.65187 28 ft 4 kts 360°
2026-05-07 17:10 55.62601 12.65185 28 ft 1 kts
2026-05-07 17:10 55.62600 12.65185 29 ft 0 kts
2026-05-07 17:13 55.62602 12.65185 29 ft 2 kts
2026-05-07 17:13 55.62642 12.65196 26 ft 8 kts 24°
2026-05-07 17:13 55.62649 12.65297 24 ft 10 kts 117°
2026-05-07 17:13 55.62579 12.65321 24 ft 12 kts 181°
2026-05-07 17:14 55.62489 12.65325 24 ft 14 kts 178°
2026-05-07 17:14 55.62440 12.65330 24 ft 6 kts 176°
2026-05-07 17:14 55.62388 12.65332 25 ft 9 kts 180°
2026-05-07 17:14 55.62310 12.65316 24 ft 12 kts 211°
2026-05-07 17:15 55.62253 12.65200 24 ft 14 kts 192°
2026-05-07 17:15 55.62168 12.65132 24 ft 14 kts 211°
2026-05-07 17:15 55.62079 12.65027 24 ft 16 kts 213°
2026-05-07 17:15 55.61976 12.64907 25 ft 19 kts 213°
2026-05-07 17:16 55.61856 12.64771 24 ft 22 kts 213°
2026-05-07 17:16 55.61726 12.64619 24 ft 24 kts 213°
2026-05-07 17:16 55.61590 12.64464 24 ft 22 kts 213°
2026-05-07 17:16 55.61456 12.64309 24 ft 24 kts 213°
2026-05-07 17:17 55.61306 12.64139 26 ft 27 kts 213°
2026-05-07 17:17 55.61143 12.63950 24 ft 29 kts 213°
2026-05-07 17:17 55.60965 12.63748 24 ft 31 kts 212°
2026-05-07 17:17 55.60831 12.63598 26 ft 12 kts 204°
2026-05-07 17:18 55.60758 12.63658 24 ft 13 kts 130°
2026-05-07 17:18 55.60699 12.63792 27 ft 15 kts 113°
2026-05-07 17:18 55.60744 12.63975 26 ft 32 kts 41°
2026-05-07 17:18 55.61101 12.64525 23 ft 100 kts 41°
2026-05-07 17:19 55.61762 12.65542 27 ft 150 kts 40°
2026-05-07 17:19 55.62607 12.66784 414 ft 160 kts 36°
2026-05-07 17:19 55.63475 12.68049 1076 ft 163 kts 39°
2026-05-07 17:19 55.64333 12.69370 1681 ft 169 kts 43°
2026-05-07 17:20 55.64958 12.71282 1894 ft 199 kts 75°
2026-05-07 17:20 55.64827 12.73709 2586 ft 198 kts 111°
2026-05-07 17:20 55.64112 12.75910 3078 ft 215 kts 123°
2026-05-07 17:20 55.63099 12.77960 3484 ft 238 kts 144°
2026-05-07 17:21 55.61456 12.78979 3922 ft 262 kts 180°
2026-05-07 17:21 55.59724 12.78067 4675 ft 270 kts 214°
2026-05-07 17:21 55.58188 12.76056 5603 ft 273 kts 219°
2026-05-07 17:21 55.56706 12.73931 6554 ft 275 kts 220°
2026-05-07 17:22 55.55226 12.71751 7412 ft 279 kts 220°
2026-05-07 17:22 55.53743 12.69570 8238 ft 283 kts 220°
2026-05-07 17:22 55.52209 12.67333 9065 ft 288 kts 219°
2026-05-07 17:22 55.50641 12.65066 9894 ft 293 kts 219°
2026-05-07 17:23 55.49042 12.62776 10475 ft 306 kts 218°
2026-05-07 17:23 55.47324 12.60330 10703 ft 329 kts 218°
2026-05-07 17:23 55.45483 12.57720 10946 ft 348 kts 218°
2026-05-07 17:23 55.43574 12.55017 11538 ft 355 kts 219°
2026-05-07 17:24 55.41641 12.52279 12262 ft 358 kts 219°
2026-05-07 17:24 55.39694 12.49522 12981 ft 361 kts 219°
2026-05-07 17:24 55.37730 12.46746 13712 ft 363 kts 219°
2026-05-07 17:24 55.35751 12.43952 14388 ft 366 kts 219°
2026-05-07 17:25 55.33761 12.41143 15022 ft 368 kts 219°
2026-05-07 17:25 55.31756 12.38318 15647 ft 371 kts 219°
2026-05-07 17:25 55.29736 12.35476 16271 ft 373 kts 219°
2026-05-07 17:25 55.27703 12.32623 16883 ft 376 kts 219°
2026-05-07 17:26 55.25651 12.29751 17523 ft 379 kts 219°
2026-05-07 17:26 55.23583 12.26860 18168 ft 382 kts 219°
2026-05-07 17:26 55.21503 12.23952 18766 ft 385 kts 219°
2026-05-07 17:26 55.19403 12.21015 19328 ft 388 kts 219°
2026-05-07 17:27 55.17284 12.18055 19889 ft 391 kts 219°
2026-05-07 17:27 55.15146 12.15076 20453 ft 395 kts 219°
2026-05-07 17:27 55.12984 12.12074 20991 ft 399 kts 219°
2026-05-07 17:27 55.10803 12.09050 21508 ft 402 kts 219°
2026-05-07 17:28 55.08602 12.06000 21995 ft 405 kts 219°
2026-05-07 17:28 55.06383 12.02924 22489 ft 409 kts 219°
2026-05-07 17:28 55.04146 11.99831 22965 ft 412 kts 219°
2026-05-07 17:28 55.01890 11.96717 23437 ft 415 kts 219°
2026-05-07 17:29 54.99617 11.93582 23863 ft 419 kts 219°
2026-05-07 17:29 54.97323 11.90424 24241 ft 421 kts 219°
2026-05-07 17:29 54.95046 11.87294 24617 ft 424 kts 219°
2026-05-07 17:29 54.92693 11.84063 24998 ft 427 kts 219°
2026-05-07 17:30 54.90350 11.80851 25360 ft 430 kts 219°
2026-05-07 17:30 54.88021 11.77661 25711 ft 433 kts 219°
2026-05-07 17:30 54.85655 11.74424 26061 ft 436 kts 219°
2026-05-07 17:30 54.83262 11.71156 26412 ft 438 kts 218°
2026-05-07 17:31 54.80857 11.67884 26762 ft 441 kts 218°
2026-05-07 17:31 54.78446 11.64616 27107 ft 443 kts 218°
2026-05-07 17:31 54.76006 11.61311 27449 ft 446 kts 218°
2026-05-07 17:31 54.73531 11.57966 27791 ft 448 kts 218°
2026-05-07 17:32 54.71090 11.54666 28120 ft 451 kts 218°
2026-05-07 17:32 54.68619 11.51323 28472 ft 453 kts 218°
2026-05-07 17:32 54.66138 11.47971 28816 ft 455 kts 218°
2026-05-07 17:32 54.64485 11.45741 29035 ft 456 kts 218°
2026-05-07 17:33 54.61137 11.41227 29616 ft 456 kts 218°
2026-05-07 17:33 54.58641 11.37865 30087 ft 455 kts 218°
2026-05-07 17:33 54.56146 11.34513 30484 ft 455 kts 218°
2026-05-07 17:33 54.53645 11.31164 30811 ft 456 kts 217°
2026-05-07 17:34 54.51136 11.27811 31155 ft 457 kts 217°
2026-05-07 17:34 54.48624 11.24459 31522 ft 457 kts 217°
2026-05-07 17:34 54.46114 11.21117 31975 ft 455 kts 217°
2026-05-07 17:34 54.43610 11.17793 32427 ft 454 kts 217°
2026-05-07 17:35 54.41112 11.14484 32829 ft 454 kts 217°
2026-05-07 17:35 54.38611 11.11179 33221 ft 454 kts 217°
2026-05-07 17:35 54.36111 11.07876 33619 ft 454 kts 217°
2026-05-07 17:35 54.33588 11.04626 34023 ft 453 kts 213°
2026-05-07 17:36 54.30859 11.01959 34350 ft 452 kts 204°
2026-05-07 17:36 54.27923 11.00049 34694 ft 450 kts 195°
2026-05-07 17:36 54.24870 10.98922 35048 ft 448 kts 188°
2026-05-07 17:36 54.21798 10.98072 35436 ft 446 kts 189°
2026-05-07 17:37 54.18741 10.97214 35802 ft 444 kts 189°
2026-05-07 17:37 54.15691 10.96353 36063 ft 444 kts 189°
2026-05-07 17:37 54.09572 10.94620 36121 ft 448 kts 189°
2026-05-07 17:38 54.03416 10.92876 36115 ft 449 kts 189°
2026-05-07 17:38 53.97257 10.91160 36114 ft 448 kts 189°
2026-05-07 17:39 53.91116 10.89456 36112 ft 446 kts 190°
2026-05-07 17:39 53.84995 10.87754 36111 ft 446 kts 190°
2026-05-07 17:40 53.79899 10.86335 36112 ft 446 kts 189°
2026-05-07 17:40 53.73775 10.84638 36114 ft 446 kts 190°
2026-05-07 17:41 53.67641 10.82968 36115 ft 446 kts 190°
2026-05-07 17:41 53.61512 10.81289 36121 ft 446 kts 190°
2026-05-07 17:42 53.55386 10.79601 36112 ft 446 kts 190°
2026-05-07 17:42 53.49263 10.77926 36111 ft 446 kts 189°
2026-05-07 17:43 53.43136 10.76263 36101 ft 446 kts 190°
2026-05-07 17:43 53.37003 10.74602 36105 ft 446 kts 190°
2026-05-07 17:44 53.30875 10.72935 36099 ft 446 kts 189°
2026-05-07 17:44 53.24748 10.71281 36092 ft 446 kts 190°
2026-05-07 17:45 53.18615 10.69629 36087 ft 447 kts 189°
2026-05-07 17:45 53.12478 10.67978 36087 ft 447 kts 189°
2026-05-07 17:46 53.06338 10.66336 36090 ft 447 kts 189°
2026-05-07 17:46 53.00234 10.64721 36089 ft 447 kts 189°
2026-05-07 17:47 52.94092 10.63082 36090 ft 447 kts 189°
2026-05-07 17:47 52.87947 10.61449 36094 ft 447 kts 189°
2026-05-07 17:48 52.81806 10.59823 36095 ft 447 kts 189°
2026-05-07 17:48 52.75657 10.58200 36093 ft 447 kts 189°
2026-05-07 17:49 52.69509 10.56578 36094 ft 448 kts 189°
2026-05-07 17:49 52.63359 10.54970 36096 ft 448 kts 189°
2026-05-07 17:50 52.57203 10.53376 36105 ft 448 kts 189°
2026-05-07 17:50 52.51046 10.51778 36105 ft 448 kts 190°
2026-05-07 17:51 52.44890 10.50161 36111 ft 448 kts 190°
2026-05-07 17:51 52.38729 10.48553 36121 ft 448 kts 189°
2026-05-07 17:52 52.32567 10.46968 36122 ft 448 kts 189°
2026-05-07 17:52 52.26398 10.45387 36121 ft 449 kts 189°
2026-05-07 17:53 52.20233 10.43806 36118 ft 449 kts 189°
2026-05-07 17:53 52.14067 10.42222 36110 ft 449 kts 189°
2026-05-07 17:54 52.07897 10.40641 36106 ft 449 kts 189°
2026-05-07 17:54 52.01730 10.39070 36098 ft 448 kts 190°
2026-05-07 17:55 51.95565 10.37509 36101 ft 448 kts 190°
2026-05-07 17:55 51.89395 10.35947 35665 ft 450 kts 189°
2026-05-07 17:56 51.86303 10.35166 35101 ft 449 kts 189°
2026-05-07 17:56 51.83217 10.34388 34553 ft 449 kts 190°
2026-05-07 17:56 51.80166 10.33618 34007 ft 450 kts 189°
2026-05-07 17:56 51.77066 10.32837 33354 ft 451 kts 189°
2026-05-07 17:57 51.73965 10.32055 32739 ft 451 kts 189°
2026-05-07 17:57 51.71866 10.31525 32324 ft 452 kts 189°
2026-05-07 17:57 51.67748 10.30491 31526 ft 453 kts 189°
2026-05-07 17:57 51.64635 10.29715 30942 ft 453 kts 189°
2026-05-07 17:58 51.61518 10.28937 30368 ft 454 kts 189°
2026-05-07 17:58 51.58395 10.28158 29732 ft 454 kts 190°
2026-05-07 17:58 51.55276 10.27380 29072 ft 454 kts 190°
2026-05-07 17:58 51.52163 10.26605 28425 ft 451 kts 190°
2026-05-07 17:59 51.49079 10.25841 27796 ft 447 kts 190°
2026-05-07 17:59 51.46023 10.25085 27187 ft 443 kts 190°
2026-05-07 17:59 51.42990 10.24329 26706 ft 439 kts 190°
2026-05-07 17:59 51.39964 10.23576 25927 ft 439 kts 190°
2026-05-07 18:00 51.36961 10.22831 25171 ft 436 kts 190°
2026-05-07 18:00 51.33967 10.22122 24465 ft 433 kts 187°
2026-05-07 18:00 51.30985 10.21921 24169 ft 425 kts 181°
2026-05-07 18:00 51.28062 10.21488 24045 ft 420 kts 194°
2026-05-07 18:01 51.25330 10.19889 24073 ft 419 kts 207°
2026-05-07 18:01 51.22710 10.17829 24073 ft 420 kts 207°
2026-05-07 18:01 51.20100 10.15741 23991 ft 420 kts 208°
2026-05-07 18:01 51.17500 10.13642 23745 ft 418 kts 208°
2026-05-07 18:02 51.12332 10.09453 23220 ft 415 kts 208°
2026-05-07 18:02 51.09761 10.07375 22935 ft 414 kts 208°
2026-05-07 18:02 51.07190 10.05309 22658 ft 413 kts 207°
2026-05-07 18:03 51.04630 10.03262 22392 ft 412 kts 207°
2026-05-07 18:03 51.02075 10.01222 22123 ft 410 kts 207°
2026-05-07 18:03 50.99531 9.99190 21853 ft 409 kts 207°
2026-05-07 18:03 50.96994 9.97169 21584 ft 408 kts 207°
2026-05-07 18:04 50.94463 9.95160 21327 ft 406 kts 207°
2026-05-07 18:04 50.91938 9.93156 21068 ft 405 kts 207°
2026-05-07 18:04 50.89426 9.91160 20806 ft 404 kts 208°
2026-05-07 18:04 50.86918 9.89166 20553 ft 402 kts 208°
2026-05-07 18:05 50.84472 9.87051 20300 ft 400 kts 216°
2026-05-07 18:05 50.82227 9.84470 20051 ft 398 kts 217°
2026-05-07 18:05 50.80028 9.81918 19807 ft 397 kts 217°
2026-05-07 18:05 50.77806 9.79339 19561 ft 396 kts 217°
2026-05-07 18:06 50.75592 9.76771 19322 ft 394 kts 217°
2026-05-07 18:06 50.73381 9.74214 19077 ft 393 kts 217°
2026-05-07 18:06 50.71178 9.71667 18838 ft 392 kts 217°
2026-05-07 18:06 50.68980 9.69129 18598 ft 391 kts 217°
2026-05-07 18:07 50.66789 9.66606 18355 ft 390 kts 217°
2026-05-07 18:07 50.64601 9.64094 18087 ft 388 kts 217°
2026-05-07 18:07 50.62421 9.61588 17820 ft 387 kts 217°
2026-05-07 18:07 50.60251 9.59096 17547 ft 386 kts 217°
2026-05-07 18:08 50.58090 9.56618 17010 ft 384 kts 217°
2026-05-07 18:08 50.55942 9.54157 16430 ft 380 kts 217°
2026-05-07 18:08 50.53809 9.51719 15860 ft 377 kts 217°
2026-05-07 18:08 50.51676 9.49356 15300 ft 374 kts 216°
2026-05-07 18:09 50.49796 9.46602 14726 ft 368 kts 235°
2026-05-07 18:09 50.48516 9.43158 14165 ft 364 kts 244°
2026-05-07 18:09 50.47364 9.39634 13582 ft 361 kts 244°
2026-05-07 18:09 50.46229 9.36139 12970 ft 359 kts 244°
2026-05-07 18:10 50.45101 9.32657 12365 ft 356 kts 244°
2026-05-07 18:10 50.43984 9.29213 11775 ft 353 kts 244°
2026-05-07 18:10 50.42874 9.25793 11198 ft 350 kts 244°
2026-05-07 18:10 50.41777 9.22400 10628 ft 348 kts 244°
2026-05-07 18:11 50.40687 9.19030 10072 ft 345 kts 244°
2026-05-07 18:11 50.39968 9.16811 9673 ft 344 kts 244°
2026-05-07 18:11 50.38536 9.12401 8847 ft 331 kts 244°
2026-05-07 18:11 50.37515 9.09267 8252 ft 316 kts 244°
2026-05-07 18:12 50.36532 9.06259 7660 ft 304 kts 244°
2026-05-07 18:12 50.35582 9.03363 7185 ft 292 kts 244°
2026-05-07 18:12 50.34675 9.00608 7054 ft 276 kts 244°
2026-05-07 18:12 50.33803 8.97968 7063 ft 272 kts 244°
2026-05-07 18:13 50.32936 8.95343 7064 ft 271 kts 244°
2026-05-07 18:13 50.32072 8.92726 7065 ft 271 kts 244°
2026-05-07 18:13 50.31207 8.90106 7065 ft 271 kts 244°
2026-05-07 18:13 50.30342 8.87487 7071 ft 271 kts 244°
2026-05-07 18:14 50.29479 8.84871 7066 ft 271 kts 244°
2026-05-07 18:14 50.28626 8.82287 7067 ft 271 kts 244°
2026-05-07 18:14 50.27762 8.79669 7063 ft 271 kts 244°
2026-05-07 18:14 50.26898 8.77055 7061 ft 271 kts 244°
2026-05-07 18:15 50.26032 8.74439 7063 ft 271 kts 244°
2026-05-07 18:15 50.25167 8.71832 7064 ft 271 kts 244°
2026-05-07 18:15 50.24300 8.69217 7061 ft 271 kts 244°
2026-05-07 18:15 50.23434 8.66606 7061 ft 271 kts 244°
2026-05-07 18:16 50.22569 8.63999 7061 ft 271 kts 244°
2026-05-07 18:16 50.21704 8.61384 7053 ft 271 kts 244°
2026-05-07 18:16 50.20839 8.58773 7051 ft 271 kts 244°
2026-05-07 18:16 50.19972 8.56160 7055 ft 271 kts 244°
2026-05-07 18:17 50.19105 8.53548 7063 ft 271 kts 244°
2026-05-07 18:17 50.18237 8.50937 7058 ft 271 kts 244°
2026-05-07 18:17 50.17369 8.48330 7061 ft 271 kts 244°
2026-05-07 18:17 50.16506 8.45722 7059 ft 271 kts 244°
2026-05-07 18:18 50.15638 8.43111 7066 ft 271 kts 244°
2026-05-07 18:18 50.14781 8.40502 7059 ft 271 kts 246°
2026-05-07 18:18 50.14136 8.37784 7057 ft 260 kts 253°
2026-05-07 18:18 50.13589 8.35106 6643 ft 259 kts 253°
2026-05-07 18:19 50.13053 8.32448 6131 ft 255 kts 254°
2026-05-07 18:19 50.12524 8.29833 5616 ft 252 kts 254°
2026-05-07 18:19 50.11998 8.27248 5099 ft 249 kts 253°
2026-05-07 18:19 50.11473 8.24689 4582 ft 247 kts 253°
2026-05-07 18:20 50.10958 8.22154 4103 ft 242 kts 253°
2026-05-07 18:20 50.10464 8.19716 4001 ft 234 kts 253°
2026-05-07 18:20 50.09977 8.17310 4012 ft 233 kts 253°
2026-05-07 18:20 50.09489 8.14903 4017 ft 233 kts 254°
2026-05-07 18:21 50.08999 8.12502 4015 ft 233 kts 253°
2026-05-07 18:21 50.08509 8.10097 4015 ft 233 kts 253°
2026-05-07 18:21 50.07905 8.07765 4011 ft 234 kts 236°
2026-05-07 18:21 50.06672 8.06147 4015 ft 236 kts 203°
2026-05-07 18:22 50.05063 8.05793 4018 ft 237 kts 171°
2026-05-07 18:22 50.04016 8.06269 4020 ft 237 kts 158°
2026-05-07 18:22 50.02008 8.07692 4017 ft 237 kts 154°
2026-05-07 18:22 50.00522 8.08805 4015 ft 237 kts 154°
2026-05-07 18:23 49.99034 8.09925 4015 ft 237 kts 154°
2026-05-07 18:23 49.97549 8.11042 4015 ft 238 kts 154°
2026-05-07 18:23 49.96168 8.12422 4011 ft 236 kts 131°
2026-05-07 18:23 49.95375 8.14619 4019 ft 235 kts 109°
2026-05-07 18:24 49.94791 8.16989 4015 ft 235 kts 103°
2026-05-07 18:24 49.94671 8.19488 4016 ft 232 kts 80°
2026-05-07 18:24 49.95127 8.21880 4018 ft 232 kts 67°
2026-05-07 18:24 49.95702 8.24222 4016 ft 232 kts 67°
2026-05-07 18:25 49.96276 8.26565 3931 ft 232 kts 68°
2026-05-07 18:25 49.96843 8.28904 3659 ft 230 kts 68°
2026-05-07 18:25 49.97404 8.31226 3374 ft 229 kts 68°
2026-05-07 18:25 49.97958 8.33514 3067 ft 229 kts 68°
2026-05-07 18:26 49.98525 8.35857 2749 ft 228 kts 66°
2026-05-07 18:26 49.99062 8.38131 2465 ft 225 kts 69°
2026-05-07 18:26 49.99564 8.40360 2076 ft 213 kts 69°
2026-05-07 18:26 50.00070 8.42391 1876 ft 188 kts 67°
2026-05-07 18:27 50.00514 8.44145 1826 ft 165 kts 68°
2026-05-07 18:27 50.00887 8.45726 1430 ft 153 kts 68°
2026-05-07 18:27 50.01267 8.47231 1263 ft 143 kts 66°
2026-05-07 18:27 50.01512 8.48194 1069 ft 140 kts 69°
2026-05-07 18:28 50.01938 8.50023 830 ft 135 kts 69°
2026-05-07 18:28 50.02263 8.51361 684 ft 131 kts 69°
2026-05-07 18:28 50.02584 8.52691 470 ft 131 kts 69°
2026-05-07 18:28 50.02797 8.53571 378 ft 130 kts 68°
2026-05-07 18:29 50.03084 8.54781 338 ft 102 kts 70°
2026-05-07 18:29 50.03269 8.55563 345 ft 52 kts 70°
2026-05-07 18:29 50.03347 8.55888 346 ft 24 kts 69°
2026-05-07 18:29 50.03405 8.56120 351 ft 23 kts 65°
2026-05-07 18:30 50.03501 8.56324 353 ft 25 kts 41°
2026-05-07 18:30 50.03603 8.56457 353 ft 16 kts 40°
2026-05-07 18:30 50.03691 8.56567 358 ft 17 kts 39°
2026-05-07 18:30 50.03778 8.56699 356 ft 18 kts 56°
2026-05-07 18:31 50.03829 8.56892 358 ft 21 kts 72°
2026-05-07 18:31 50.03884 8.57107 359 ft 22 kts 69°
2026-05-07 18:31 50.03936 8.57326 362 ft 22 kts 70°
2026-05-07 18:31 50.03990 8.57553 366 ft 23 kts 70°
2026-05-07 18:32 50.04048 8.57800 368 ft 25 kts 69°
2026-05-07 18:32 50.04110 8.58057 370 ft 23 kts 70°
2026-05-07 18:32 50.04176 8.58324 369 ft 34 kts 69°
2026-05-07 18:32 50.04264 8.58692 373 ft 31 kts 70°
2026-05-07 18:33 50.04338 8.59006 376 ft 31 kts 69°
2026-05-07 18:33 50.04414 8.59321 376 ft 32 kts 70°
2026-05-07 18:33 50.04475 8.59470 375 ft 13 kts 13°
2026-05-07 18:33 50.04574 8.59465 373 ft 16 kts 359°
2026-05-07 18:34 50.04669 8.59451 372 ft 11 kts 349°
2026-05-07 18:34 50.04746 8.59416 372 ft 12 kts 338°
2026-05-07 18:34 50.04813 8.59378 371 ft 14 kts 340°
2026-05-07 18:34 50.04918 8.59372 371 ft 14 kts
2026-05-07 18:35 50.05012 8.59326 366 ft 15 kts 339°
2026-05-07 18:35 50.05078 8.59231 362 ft 15 kts 272°
2026-05-07 18:35 50.05079 8.59155 359 ft 5 kts 308°
2026-05-07 18:35 50.05105 8.59175 359 ft 5 kts 30°
2026-05-07 18:36 50.05142 8.59200 362 ft 6 kts
2026-05-07 18:36 50.05172 8.59186 361 ft 0 kts 337°
2026-05-07 18:36 50.05175 8.59184 360 ft 1 kts 338°